DW8500 Weather Reports


Display with metric or nautical units.
time (UTC)temp
F
wind
direction
speed
MPH
gust
MPH
rain 1hr
in
rain 24hr
in
rain mn
in
humidity
%
barometer
mb
20260510151715 62 238 0.0 2.0 0.00 0.55 0.01 55 1012.3
20260510151212 62 246 0.0 2.0 0.00 0.55 0.01 55 1012.3
20260510150714 61 270 1.0 2.0 0.00 0.55 0.01 54 1012.4
20260510150211 61 122 1.0 3.0 0.00 0.55 0.01 55 1012.5
20260510145710 60 111 1.0 3.0 0.00 0.59 0.01 56 1012.6
20260510145225 60 98 1.0 3.0 0.00 0.59 0.01 57 1012.5
20260510144725 60 138 1.0 2.0 0.00 0.59 0.01 56 1012.6
20260510144641 59 89 1.0 2.0 0.00 0.59 0.01 56 1012.8
20260510144244 60 110 0.0 2.0 0.00 0.59 0.01 58 1012.6
20260510143743 59 162 0.0 1.0 0.00 0.59 0.01 59 1012.6
20260510143217 58 225 0.0 1.0 0.00 0.59 0.01 58 1012.6
20260510142713 58 265 0.0 3.0 0.00 0.59 0.01 59 1012.6
20260510142211 57 249 1.0 3.0 0.00 0.59 0.01 59 1012.7
20260510141711 57 283 0.0 3.0 0.00 0.59 0.01 61 1012.8
20260510141207 56 148 0.0 2.0 0.00 0.59 0.01 62 1012.9
20260510140712 56 104 2.0 2.0 0.00 0.59 0.01 62 1012.8
20260510140211 55 148 0.0 2.0 0.00 0.59 0.01 63 1012.8
20260510135710 55 256 1.0 2.0 0.00 0.62 0.01 64 1012.8
20260510135248 55 82 0.0 2.0 0.00 0.62 0.01 64 1012.8
20260510134725 55 359 0.0 2.0 0.00 0.62 0.01 65 1012.7
20260510134640 54 359 0.0 2.0 0.00 0.62 0.01 65 1013.0
20260510134221 54 143 0.0 1.0 0.00 0.62 0.01 65 1012.8
20260510133722 54 148 0.0 0.0 0.00 0.62 0.01 65 1012.8
20260510133214 54 148 0.0 0.0 0.00 0.62 0.01 65 1012.7
20260510133135 53 148 0.0 0.0 0.00 0.62 0.01 65 1013.0
20260510132715 54 148 0.0 1.0 0.00 0.62 0.01 65 1012.7
20260510132212 53 146 0.0 1.0 0.00 0.62 0.01 65 1012.6
20260510131713 53 128 0.0 1.0 0.00 0.62 0.01 65 1012.5
20260510131232 53 125 0.0 4.0 0.00 0.62 0.01 65 1012.5
20260510130714 53 124 1.0 4.0 0.00 0.62 0.01 65 1012.5
20260510130212 53 156 0.0 0.0 0.00 0.62 0.01 65 1012.4
20260510125712 53 157 0.0 0.0 0.00 0.64 0.01 65 1012.5
20260510125208 53 156 0.0 1.0 0.00 0.64 0.01 65 1012.6
20260510124708 53 156 0.0 1.0 0.00 0.64 0.01 65 1012.7
20260510124207 52 156 0.0 0.0 0.00 0.64 0.01 65 1012.7
20260510123744 52 156 0.0 2.0 0.00 0.64 0.01 66 1012.7
20260510123218 52 157 0.0 2.0 0.00 0.64 0.01 66 1012.6
20260510123134 51 157 0.0 2.0 0.00 0.64 0.01 65 1012.9
20260510122737 52 251 0.0 1.0 0.00 0.64 0.01 66 1012.5
20260510122214 51 251 0.0 1.0 0.00 0.64 0.01 66 1012.5
20260510121714 51 151 0.0 0.0 0.00 0.64 0.01 66 1012.6
20260510121210 50 151 0.0 0.0 0.00 0.64 0.01 66 1012.5
20260510120711 50 151 0.0 0.0 0.00 0.64 0.01 66 1012.5
20260510120209 50 151 0.0 0.0 0.00 0.64 0.01 66 1012.4
20260510115710 50 151 0.0 0.0 0.00 0.64 0.01 66 1012.4
20260510115227 50 151 0.0 0.0 0.00 0.64 0.01 66 1012.5
20260510114721 50 151 0.0 0.0 0.00 0.64 0.01 66 1012.4
20260510114641 49 151 0.0 0.0 0.00 0.64 0.01 66 1012.7
20260510114241 50 152 0.0 0.0 0.00 0.64 0.01 66 1012.3
20260510113719 49 151 0.0 0.0 0.00 0.64 0.01 66 1012.3
20260510113238 49 151 0.0 0.0 0.00 0.64 0.01 66 1012.3
20260510112718 49 151 0.0 0.0 0.00 0.64 0.01 66 1012.2
20260510112215 49 151 0.0 0.0 0.00 0.64 0.01 66 1012.3
20260510111736 49 151 0.0 0.0 0.00 0.64 0.01 66 1012.2
20260510111213 48 151 0.0 0.0 0.00 0.64 0.01 66 1012.1
20260510110714 48 152 0.0 0.0 0.00 0.64 0.01 66 1012.1
20260510110228 48 151 0.0 0.0 0.00 0.64 0.01 66 1012.3
20260510105747 48 152 0.0 0.0 0.00 0.64 0.01 66 1012.1
20260510105224 48 152 0.0 0.0 0.00 0.64 0.01 66 1012.1
20260510104725 48 151 0.0 0.0 0.00 0.64 0.01 66 1011.9
20260510104637 47 151 0.0 0.0 0.00 0.64 0.01 66 1012.2
20260510104222 48 152 0.0 0.0 0.00 0.64 0.01 66 1011.8
20260510103743 48 151 0.0 0.0 0.00 0.64 0.01 66 1011.8
20260510103219 48 152 0.0 0.0 0.00 0.64 0.01 66 1011.9
20260510103133 47 152 0.0 0.0 0.00 0.64 0.01 66 1012.2
20260510102738 48 152 0.0 0.0 0.00 0.64 0.01 66 1011.8
20260510102214 47 152 0.0 0.0 0.00 0.64 0.01 66 1011.7
20260510101711 47 151 0.0 0.0 0.00 0.64 0.01 66 1011.5
20260510101210 47 151 0.0 0.0 0.00 0.64 0.01 66 1011.4
20260510100711 47 152 0.0 0.0 0.00 0.64 0.01 66 1011.7
20260510100211 47 152 0.0 0.0 0.00 0.64 0.01 66 1011.2
20260510095710 47 152 0.0 0.0 0.00 0.64 0.01 66 1011.3
20260510095207 47 152 0.0 0.0 0.00 0.64 0.01 66 1011.5
20260510094726 47 152 0.0 0.0 0.00 0.64 0.01 66 1011.4
20260510094639 46 152 0.0 0.0 0.00 0.64 0.01 66 1011.8
20260510094243 47 152 0.0 0.0 0.00 0.64 0.01 66 1011.2
20260510093720 47 152 0.0 0.0 0.00 0.64 0.01 66 1011.2
20260510093217 47 152 0.0 0.0 0.00 0.64 0.01 66 1011.2
20260510093131 46 151 0.0 0.0 0.00 0.64 0.01 66 1011.6
20260510092733 47 152 0.0 0.0 0.00 0.64 0.01 66 1011.2
20260510092211 47 151 0.0 0.0 0.00 0.64 0.01 66 1011.5
20260510091712 47 151 0.0 0.0 0.00 0.64 0.01 66 1011.4
20260510091210 47 152 0.0 0.0 0.00 0.64 0.01 66 1011.5
20260510090710 47 152 0.0 0.0 0.00 0.64 0.01 66 1011.6
20260510090208 47 152 0.0 0.0 0.00 0.64 0.01 66 1011.5
20260510085708 47 152 0.0 0.0 0.00 0.64 0.01 66 1011.4
20260510085208 47 151 0.0 0.0 0.00 0.64 0.01 66 1011.3
20260510084729 47 151 0.0 0.0 0.00 0.64 0.01 66 1011.4
20260510084227 47 264 0.0 0.0 0.00 0.64 0.01 66 1011.6
20260510083208 47 264 0.0 0.0 0.00 0.64 0.01 66 1011.5
20260510082740 47 264 0.0 0.0 0.00 0.64 0.01 66 1011.4
20260510082234 47 264 0.0 0.0 0.00 0.64 0.01 66 1011.4
20260510081714 47 264 0.0 0.0 0.00 0.64 0.01 66 1011.4
20260510081234 47 264 0.0 0.0 0.00 0.64 0.01 66 1011.2
20260510080712 47 264 0.0 0.0 0.00 0.64 0.01 66 1011.2
20260510080209 47 264 0.0 0.0 0.00 0.64 0.01 66 1011.1
20260510075709 47 264 0.0 0.0 0.00 0.64 0.01 66 1011.2
20260510075221 47 264 0.0 0.0 0.00 0.64 0.01 66 1011.3
20260510074720 47 264 0.0 0.0 0.00 0.64 0.01 66 1011.4
20260510074640 46 264 0.0 0.0 0.00 0.64 0.01 66 1011.8
20260510074217 47 264 0.0 0.0 0.00 0.64 0.01 66 1011.2
20260510073719 47 264 0.0 0.0 0.00 0.64 0.01 66 1011.1
20260510073235 47 264 0.0 0.0 0.00 0.64 0.01 66 1011.3
20260510072715 47 264 0.0 0.0 0.00 0.64 0.01 66 1011.2
20260510072213 47 264 0.0 0.0 0.00 0.64 0.01 66 1011.2
20260510071714 47 264 0.0 0.0 0.00 0.64 0.01 66 1011.3
20260510071212 47 75 0.0 0.0 0.00 0.64 0.01 66 1011.1
20260510070713 47 75 0.0 0.0 0.00 0.64 0.01 66 1011.2
20260510070211 47 75 0.0 0.0 0.00 0.64 0.01 66 1011.1
20260510065724 47 75 0.0 0.0 0.00 0.64 0.01 66 1011.2
20260510065222 47 75 0.0 0.0 0.00 0.64 0.01 66 1011.3
20260510064720 47 75 0.0 0.0 0.00 0.64 0.01 66 1011.3
20260510064639 46 75 0.0 0.0 0.00 0.64 0.01 66 1011.7
20260510064218 47 75 0.0 0.0 0.00 0.64 0.01 66 1011.3
20260510063736 47 75 0.0 0.0 0.00 0.64 0.01 66 1011.2
20260510063233 47 75 0.0 0.0 0.00 0.64 0.01 66 1011.3
20260510062732 47 75 0.0 0.0 0.00 0.64 0.01 66 1011.4
20260510062209 46 75 0.0 0.0 0.00 0.64 0.01 66 1011.3
20260510061709 46 75 0.0 0.0 0.00 0.64 0.01 66 1011.2
20260510061222 47 75 0.0 0.0 0.00 0.64 0.01 66 1011.3
20260510060721 47 75 0.0 0.0 0.00 0.64 0.01 66 1011.5
20260510060236 47 75 0.0 0.0 0.00 0.64 0.01 66 1011.6
20260510060129 46 75 0.0 0.0 0.01 0.64 0.01 66 1011.9
20260510055717 46 75 0.0 0.0 0.01 0.64 0.01 66 1011.7
20260510055213 46 75 0.0 0.0 0.01 0.64 0.01 66 1011.7
20260510054715 46 75 0.0 0.0 0.01 0.64 0.01 66 1011.5
20260510054215 46 75 0.0 0.0 0.01 0.64 0.01 66 1011.5
20260510053714 46 75 0.0 0.0 0.01 0.64 0.01 66 1011.7
20260510053213 46 75 0.0 0.0 0.01 0.64 0.01 66 1011.7
20260510052714 46 75 0.0 0.0 0.01 0.64 0.01 66 1011.8
20260510052212 46 75 0.0 0.0 0.01 0.64 0.01 66 1011.8
20260510051727 46 75 0.0 0.0 0.01 0.64 0.01 66 1011.8
20260510051225 46 75 0.0 0.0 0.01 0.64 0.01 66 1011.8
20260510050705 47 75 0.0 0.0 0.01 0.64 0.01 66 1011.7
20260510050225 47 75 0.0 0.0 0.00 0.63 0.00 66 1011.8
20260510050138 46 75 0.0 0.0 0.00 0.63 0.00 66 1012.2
20260510045722 46 75 0.0 0.0 0.00 0.63 0.00 66 1011.9
20260510045221 46 75 0.0 0.0 0.00 0.63 0.00 66 1011.9
20260510044718 46 75 0.0 0.0 0.00 0.63 0.00 66 1011.9
20260510044216 47 75 0.0 0.0 0.00 0.63 0.00 66 1011.9
20260510043716 46 75 0.0 0.0 0.00 0.63 0.00 66 1012.0
20260510043215 46 75 0.0 0.0 0.00 0.63 0.00 66 1011.9
20260510042715 46 75 0.0 0.0 0.00 0.63 0.00 66 1012.0
20260510042208 46 75 0.0 0.0 0.00 0.63 0.00 66 1012.1
20260510041709 46 75 0.0 0.0 0.00 0.63 0.00 66 1012.0
20260510041205 46 75 0.0 0.0 0.00 0.63 0.00 66 1012.0
20260510040724 46 75 0.0 0.0 0.00 0.63 0.00 66 1012.0
20260510040218 46 75 0.0 0.0 0.00 0.63 0.00 66 1011.9
20260510040137 46 75 0.0 0.0 0.00 0.63 0.63 66 1012.2
20260510035722 46 75 0.0 0.0 0.00 0.63 0.63 66 1011.9
20260510035218 46 75 0.0 0.0 0.00 0.63 0.63 66 1012.0
20260510034719 46 75 0.0 0.0 0.00 0.63 0.63 66 1012.0
20260510034635 46 75 0.0 0.0 0.00 0.63 0.63 66 1012.4
20260510034216 46 75 0.0 0.0 0.00 0.63 0.63 66 1012.1
20260510033718 46 75 0.0 0.0 0.00 0.63 0.63 66 1012.3
20260510033215 46 75 0.0 0.0 0.00 0.63 0.63 66 1012.3
20260510032711 46 75 0.0 0.0 0.00 0.63 0.63 66 1012.3
20260510032218 46 75 0.0 0.0 0.00 0.63 0.63 66 1012.4
20260510031706 46 75 0.0 0.0 0.00 0.63 0.63 66 1012.3
20260510031222 46 75 0.0 0.0 0.00 0.63 0.63 66 1012.3
20260510030719 46 75 0.0 0.0 0.00 0.63 0.63 66 1012.4
20260510030215 46 75 0.0 0.0 0.00 0.63 0.63 66 1012.3
20260510025722 46 75 0.0 0.0 0.00 0.63 0.63 66 1012.5
20260510025211 46 75 0.0 0.0 0.00 0.63 0.63 65 1012.4
20260510024723 46 75 0.0 0.0 0.00 0.63 0.63 66 1012.6
20260510024637 46 75 0.0 0.0 0.00 0.63 0.63 66 1013.0
20260510024214 46 75 0.0 0.0 0.00 0.63 0.63 66 1012.6
20260510023711 46 75 0.0 0.0 0.00 0.63 0.63 66 1012.7
20260510023213 46 75 0.0 0.0 0.00 0.63 0.63 65 1012.6
20260510023131 46 75 0.0 0.0 0.00 0.63 0.63 65 1012.9
20260510022713 46 75 0.0 0.0 0.00 0.63 0.63 65 1012.5
20260510022209 46 75 0.0 0.0 0.00 0.63 0.63 65 1012.5
20260510021709 46 75 0.0 0.0 0.00 0.63 0.63 65 1012.6
20260510021208 46 75 0.0 0.0 0.00 0.63 0.63 65 1012.6
20260510020709 46 75 0.0 0.0 0.00 0.63 0.63 65 1012.8
20260510020206 46 75 0.0 0.0 0.00 0.63 0.63 65 1012.9
20260510015728 46 75 0.0 0.0 0.00 0.63 0.63 65 1012.9
20260510015204 46 75 0.0 0.0 0.00 0.63 0.63 66 1013.0
20260510014721 46 75 0.0 0.0 0.00 0.63 0.63 65 1013.0
20260510014639 46 75 0.0 0.0 0.00 0.63 0.63 65 1013.4
20260510014257 46 75 0.0 0.0 0.00 0.63 0.63 65 1012.9
20260510013712 46 75 0.0 0.0 0.00 0.63 0.63 65 1013.0
20260510013251 46 75 0.0 0.0 0.00 0.63 0.63 65 1012.8
20260510012705 46 75 0.0 0.0 0.00 0.63 0.63 65 1012.7
20260510012222 46 75 0.0 0.0 0.00 0.63 0.63 65 1012.6
20260510011721 46 75 0.0 0.0 0.00 0.63 0.63 65 1012.7
20260510011633 46 75 0.0 0.0 0.00 0.63 0.63 65 1013.2
20260510011233 46 75 0.0 0.0 0.00 0.63 0.63 65 1012.6
20260510010713 46 75 0.0 0.0 0.00 0.63 0.63 65 1012.7
20260510010211 46 75 0.0 0.0 0.00 0.63 0.63 65 1012.5
20260510005810 46 75 0.0 0.0 0.00 0.63 0.63 65 1012.6
20260510005222 46 75 0.0 0.0 0.00 0.63 0.63 65 1012.7
20260510004742 46 75 0.0 0.0 0.00 0.63 0.63 65 1012.7
20260510004633 46 75 0.0 0.0 0.00 0.63 0.63 65 1013.1
20260510004216 46 75 0.0 0.0 0.00 0.63 0.63 65 1012.7
20260510003715 46 75 0.0 0.0 0.00 0.63 0.63 65 1012.7
20260510003214 46 75 0.0 0.0 0.00 0.63 0.63 65 1012.8
20260510002732 46 75 0.0 0.0 0.00 0.63 0.63 65 1012.6
20260510002211 46 74 0.0 0.0 0.00 0.63 0.63 65 1012.7
20260510001710 46 111 0.0 0.0 0.00 0.63 0.63 65 1012.7
20260510001209 46 110 0.0 0.0 0.00 0.63 0.63 65 1012.7
20260510000709 46 110 0.0 0.0 0.00 0.63 0.63 65 1012.8
20260510000207 46 110 0.0 0.0 0.00 0.63 0.63 65 1012.8
20260509235706 46 110 0.0 0.0 0.00 0.63 0.63 65 1012.7
20260509235223 46 110 0.0 0.0 0.00 0.63 0.63 65 1012.7
20260509234721 46 110 0.0 0.0 0.00 0.63 0.63 65 1012.6
20260509234633 46 110 0.0 0.0 0.00 0.63 0.63 65 1013.0
20260509234217 46 110 0.0 0.0 0.01 0.63 0.63 65 1012.5
20260509233718 46 110 0.0 0.0 0.01 0.63 0.63 65 1012.5
20260509233230 46 110 0.0 0.0 0.01 0.63 0.63 65 1012.3
20260509232709 46 110 0.0 0.0 0.02 0.63 0.63 65 1012.3
20260509232206 46 110 0.0 0.0 0.02 0.63 0.63 65 1012.3
20260509231706 46 110 0.0 0.0 0.03 0.63 0.63 65 1012.3
20260509231245 46 110 0.0 0.0 0.03 0.63 0.63 65 1012.2
20260509230722 46 119 0.0 0.0 0.03 0.63 0.63 65 1012.3
20260509230218 46 119 0.0 0.0 0.04 0.63 0.63 65 1012.2
20260509230134 46 119 0.0 0.0 0.04 0.63 0.63 65 1012.5
20260509225718 46 117 0.0 0.0 0.04 0.63 0.63 65 1012.2
20260509225214 46 117 0.0 0.0 0.05 0.63 0.63 65 1012.1
20260509224715 46 117 0.0 0.0 0.06 0.63 0.63 65 1012.1
20260509224207 46 117 0.0 1.0 0.06 0.62 0.62 65 1012.0
20260509223709 46 113 0.0 1.0 0.06 0.62 0.62 65 1012.0
20260509223228 46 113 0.0 1.0 0.07 0.62 0.62 65 1011.9
20260509222725 46 113 0.0 2.0 0.07 0.61 0.61 65 1012.0
20260509222204 46 113 0.0 2.0 0.07 0.61 0.61 65 1012.0
20260509221705 46 115 1.0 2.0 0.07 0.60 0.60 65 1012.0
20260509221223 46 236 0.0 2.0 0.08 0.60 0.60 65 1012.3
20260509220704 46 99 2.0 2.0 0.08 0.60 0.60 65 1012.2
20260509220222 46 258 1.0 2.0 0.08 0.59 0.59 65 1012.5
20260509220137 46 257 1.0 2.0 0.08 0.59 0.59 65 1012.9
20260509215703 46 82 2.0 2.0 0.09 0.59 0.59 65 1012.3
20260509215220 46 266 1.0 2.0 0.09 0.58 0.58 65 1012.6
20260509214719 46 95 1.0 2.0 0.09 0.57 0.57 65 1012.4
20260509214637 46 95 1.0 2.0 0.09 0.56 0.56 65 1012.8
20260509214216 46 100 0.0 1.0 0.09 0.56 0.56 65 1012.7
20260509213717 46 100 0.0 1.0 0.10 0.55 0.55 65 1012.7
20260509213212 46 100 0.0 1.0 0.13 0.55 0.55 65 1012.8
20260509213126 46 100 0.0 1.0 0.13 0.55 0.55 65 1013.1
20260509212713 46 101 0.0 1.0 0.13 0.54 0.54 65 1012.8
20260509212211 46 96 0.0 0.0 0.15 0.54 0.54 65 1012.7
20260509211712 46 98 0.0 0.0 0.14 0.53 0.53 65 1012.9
20260509211207 46 91 0.0 0.0 0.14 0.52 0.52 65 1012.9
20260509210710 46 91 0.0 0.0 0.14 0.52 0.52 65 1012.9
20260509210207 46 91 0.0 0.0 0.14 0.51 0.51 65 1012.9
20260509205725 46 91 0.0 0.0 0.13 0.50 0.50 64 1013.0
20260509205237 46 91 0.0 0.0 0.13 0.49 0.49 64 1012.9
20260509204736 46 91 0.0 0.0 0.12 0.48 0.48 64 1013.0
20260509204638 46 91 0.0 0.0 0.12 0.48 0.48 64 1013.3
20260509204211 46 90 0.0 0.0 0.11 0.47 0.47 64 1013.1
20260509203712 46 91 0.0 0.0 0.09 0.45 0.45 64 1013.0
20260509203209 46 325 0.0 1.0 0.06 0.42 0.42 64 1013.1
20260509202708 46 326 0.0 1.0 0.04 0.40 0.40 64 1012.9
20260509202227 46 273 0.0 1.0 0.03 0.39 0.39 64 1013.0
20260509201707 46 103 0.0 0.0 0.02 0.38 0.38 64 1012.9
20260509201204 46 102 0.0 1.0 0.02 0.38 0.38 64 1012.9
20260509200720 46 102 0.0 1.0 0.02 0.38 0.38 64 1012.7
20260509200216 46 102 0.0 1.0 0.01 0.37 0.37 64 1012.7
20260509200133 46 102 0.0 1.0 0.01 0.37 0.37 64 1013.0
20260509195715 47 102 0.0 1.0 0.01 0.37 0.37 64 1012.8
20260509195231 47 102 0.0 1.0 0.00 0.36 0.36 64 1012.7
20260509194709 47 103 0.0 1.0 0.00 0.36 0.36 64 1012.8
20260509194226 47 101 0.0 2.0 0.00 0.36 0.36 64 1012.7
20260509193707 47 100 0.0 2.0 0.00 0.36 0.36 64 1012.6
20260509193205 47 89 0.0 1.0 0.00 0.36 0.36 64 1012.6
20260509192706 46 89 1.0 2.0 0.01 0.36 0.36 64 1012.6
20260509192205 46 88 0.0 2.0 0.01 0.36 0.36 64 1012.9
20260509191721 46 115 0.0 2.0 0.01 0.36 0.36 64 1012.9
20260509191640 46 130 0.0 2.0 0.01 0.36 0.36 64 1013.2
20260509190717 46 245 0.0 1.0 0.03 0.36 0.36 64 1013.0
20260509190214 46 245 1.0 1.0 0.04 0.36 0.36 64 1013.0
20260509190127 46 245 0.0 1.0 0.04 0.36 0.36 64 1013.2
20260509185715 46 244 1.0 1.0 0.04 0.36 0.36 64 1013.1
20260509185214 46 67 0.0 1.0 0.05 0.36 0.36 64 1013.0
20260509184713 46 108 0.0 1.0 0.06 0.36 0.36 64 1013.2
20260509184211 46 108 0.0 1.0 0.07 0.36 0.36 64 1013.1
20260509183713 46 108 0.0 1.0 0.07 0.36 0.36 64 1013.3
20260509183212 45 85 0.0 1.0 0.08 0.36 0.36 64 1013.2
20260509182713 45 86 0.0 1.0 0.08 0.35 0.35 64 1013.4
20260509182212 45 86 0.0 1.0 0.09 0.35 0.35 64 1013.5
20260509181706 45 86 0.0 1.0 0.10 0.35 0.35 64 1013.5
20260509181224 45 65 0.0 1.0 0.10 0.34 0.34 63 1013.7
20260509180724 45 65 0.0 0.0 0.10 0.33 0.33 63 1013.7
20260509180222 45 65 0.0 1.0 0.10 0.32 0.32 63 1013.9
20260509180134 44 65 0.0 1.0 0.10 0.32 0.32 63 1014.1
20260509175720 45 65 0.0 1.0 0.10 0.31 0.31 63 1013.8
20260509175217 45 65 0.0 0.0 0.10 0.31 0.31 63 1013.8
20260509174737 45 65 0.0 0.0 0.10 0.30 0.30 63 1013.8
20260509174234 45 65 0.0 1.0 0.10 0.29 0.29 63 1013.8
20260509173731 45 65 0.0 1.0 0.11 0.29 0.29 63 1013.8
20260509173206 45 65 0.0 1.0 0.11 0.28 0.28 63 1014.0
20260509172709 45 65 0.0 1.0 0.11 0.27 0.27 62 1014.0
20260509172207 45 65 0.0 1.0 0.10 0.26 0.26 62 1014.2
20260509171745 45 65 0.0 0.0 0.10 0.25 0.25 63 1014.3
20260509171637 44 65 0.0 0.0 0.00 0.00 0.25 63 1014.6
20260509171220 45 65 0.0 0.0 0.09 0.24 0.24 62 1014.1
20260509170718 45 65 0.0 1.0 0.09 0.23 0.23 61 1014.2
20260509170214 45 65 0.0 1.0 0.08 0.22 0.22 61 1014.4
20260509170131 44 65 0.0 0.0 0.08 0.22 0.22 61 1014.6
20260509165714 44 65 0.0 1.0 0.08 0.21 0.21 61 1014.4
20260509165233 44 65 0.0 1.0 0.08 0.21 0.21 61 1014.4
20260509164709 44 65 0.0 1.0 0.08 0.20 0.20 61 1014.5
20260509164205 44 65 0.0 0.0 0.08 0.19 0.19 61 1014.5
20260509163705 44 65 0.0 0.0 0.07 0.18 0.18 61 1014.5
20260509163222 44 65 0.0 0.0 0.06 0.17 0.17 61 1014.4
20260509163133 44 65 0.0 0.0 0.06 0.17 0.17 61 1014.6
20260509162719 44 65 0.0 1.0 0.06 0.16 0.16 61 1014.1
20260509162215 44 49 0.0 1.0 0.06 0.16 0.16 60 1014.0
20260509161714 44 49 0.0 1.0 0.05 0.15 0.15 61 1014.2
20260509161213 44 49 0.0 1.0 0.06 0.15 0.15 61 1014.1
20260509160715 44 49 0.0 1.0 0.05 0.14 0.14 61 1014.2
20260509160212 44 49 0.0 1.0 0.05 0.14 0.14 61 1014.3
20260509155712 44 49 0.0 1.0 0.05 0.13 0.13 61 1014.5
20260509155211 44 49 0.0 1.0 0.04 0.12 0.12 61 1014.5
20260509154707 44 49 0.0 1.0 0.04 0.12 0.12 61 1014.7
20260509154205 44 49 0.0 1.0 0.03 0.11 0.11 61 1014.7
20260509153705 44 49 0.0 0.0 0.03 0.11 0.11 61 1014.8
20260509153205 44 49 0.0 1.0 0.04 0.11 0.11 61 1015.0
20260509152704 44 49 0.0 1.0 0.03 0.10 0.10 61 1015.0
20260509152223 44 46 0.0 1.0 0.03 0.10 0.10 61 1014.8